This demonstration page uses our WeatherBlox Daily Observations layout. Learn more.

Left ArrowRight Arrow

38.20091, -84.87328

Hourly Observations for April 15, 2022

Temp ( °F °C ) Dew Point ( °F °C ) Humidity (%) Winds ( mph kmh ) Pressure ( in mb ) Visibility ( mi km ) Precip ( " mm )
12:53 am 00:53 Clear 44 6.7 27 -2.8 51 51 SW 5 7 30.11 1020 10 16 0.00 0.00
1:53 am 01:53 Clear 46 7.8 26 -3.3 46 46 SW 5 7 30.12 1020 10 16 0.00 0.00
2:53 am 02:53 Clear 43 6.1 27 -2.8 53 53 SSW 5 7 30.12 1020 10 16 0.00 0.00
3:53 am 03:53 Clear 44 6.7 27 -2.8 51 51 SSW 6 9 30.12 1020 10 16 0.00 0.00
4:53 am 04:53 Clear 44 6.7 28 -2.2 53 53 SSW 7 11 30.12 1020 10 16 0.00 0.00
5:53 am 05:53 Clear 44 6.7 29 -1.7 55 55 S 6 9 30.10 1019 10 16 0.00 0.00
6:53 am 06:53 Clear 40 4.4 30 -1.1 68 68 S 3 6 30.10 1019 10 16 0.00 0.00
7:53 am 07:53 Sunny 45 7.2 32 0 61 61 S 5 7 30.11 1020 10 16 0.00 0.00
8:53 am 08:53 Sunny 51 10.6 33 0.6 50 50 S 8 13 30.13 1020 10 16 0.00 0.00
9:53 am 09:53 Sunny 57 13.9 34 1.1 42 42 S 8 13 30.13 1020 10 16 0.00 0.00
10:53 am 10:53 Sunny 63 17.2 32 0 31 31 S 12 19 30.12 1020 10 16 0.00 0.00
11:53 am 11:53 Sunny 66 18.9 30 -1.1 26 26 S 10 17 30.10 1019 10 16 0.00 0.00
12:53 pm 12:53 Sunny 69 20.6 23 -5 17 17 S 16 26 30.06 1018 10 16 0.00 0.00
1:53 pm 13:53 Sunny 70 21.1 26 -3.3 19 19 S 16 26 30.04 1017 10 16 0.00 0.00
2:53 pm 14:53 Sunny 71 21.7 24 -4.4 17 17 SSW 21 33 30.03 1017 10 16 0.00 0.00
3:53 pm 15:53 Sunny 70 21.1 24 -4.4 18 18 SSW 18 30 30.01 1016 10 16 0.00 0.00
4:53 pm 16:53 Sunny 69 20.6 25 -3.9 19 19 SSW 15 24 29.99 1016 10 16 0.00 0.00
5:53 pm 17:53 Sunny 68 20 29 -1.7 23 23 SW 9 15 29.99 1016 10 16 0.00 0.00
6:53 pm 18:53 Sunny 66 18.9 30 -1.1 26 26 WSW 9 15 29.99 1016 10 16 0.00 0.00
7:53 pm 19:53 Cloudy 65 18.3 28 -2.2 25 25 SW 12 19 29.99 1016 10 16 0.00 0.00
8:53 pm 20:53 Cloudy 62 16.7 38 3.3 41 41 SW 25 41 30.04 1017 10 16 0.00 0.00
9:53 pm 21:53 Cloudy 55 12.8 47 8.3 74 74 WSW 5 7 30.03 1017 10 16 0.01 0.25
10:53 pm 22:53 Cloudy 55 12.8 48 8.9 77 77 SE 3 6 29.97 1015 10 16 0.00 0.00
11:53 pm 23:53 Mostly Cloudy 55 12.8 48 8.9 77 77 SSW 6 9 29.98 1015 10 16 0.00 0.00

Powered by AerisWeather